www.pogodaiklimat.ru

Погода и климат >> Архив погоды >> Норвегия >> Vaeroy Heliport


ПОГОДА в Vaeroy Heliport

  • Прогноз погоды в Vaeroy Heliport
  • Монитор погоды в Vaeroy Heliport
  • Климат города

АРХИВ ПОГОДЫ в Vaeroy Heliport

Время (UTC), дата Ветер
(напр.,м/с)
 
Видим.   Явления Облачность Т
(С)
Тd
(С)
f
(%)
Тe
(С)
Тes
(С)
Комфортность P
(гПа)
Po
(гПа)
Тmin
(С)
Tmax
(С)
R
(мм)
R24
(мм)
S
(см)
17 18.05 ЮЗ 5
{8}
н/о н/о +6.9 +4.7 86 +3 +3 1020.6 1020.1
16 18.05 ЮЗ 6
{9}
н/о н/о +7.0 +4.8 86 +3 +3 1020.8 1020.3
18 18.05 ЮЗ 6
{14}
н/о н/о +7.0 +4.7 85 +3 +3 1020.1 1019.6 +6.7 +7.7
19 18.05 ЮЗ 7
{9}
н/о н/о +7.0 +3.8 80 +2 +2 1019.8 1019.3
20 18.05 ЮЗ 6
{10}
н/о н/о +6.8 +4.1 83 +2 +2 1019.4 1018.9
21 18.05 ЮЗ 8
{12}
н/о н/о +6.9 +3.9 81 +2 +2 1018.9 1018.4
23 18.05 ЮЗ 8
{11}
н/о н/о +6.9 +4.7 86 +2 +2 1017.7 1017.2
22 18.05 ЮЗ 8
{11}
н/о н/о +6.8 +3.9 82 +2 +2 1018.5 1018.0
00 19.05 Ю 8
{12}
н/о н/о +6.8 +5.0 88 +2 +2 1017.1 1016.6
01 19.05 Ю 8
{11}
н/о н/о +6.8 +5.2 90 +2 +2 1016.5 1016.0
02 19.05 Ю 10
{13}
н/о н/о +6.9 +5.2 89 +1 +1 1015.6 1015.1
03 19.05 ЮЗ 11
{13}
н/о н/о +7.1 +5.3 88 +1 +1 1015.4 1014.9
05 19.05 ЮЗ 11 н/о н/о +7.2 +5.7 90 +1 +1 1014.4 1013.9
04 19.05 ЮЗ 11 н/о н/о +7.1 +5.3 88 +1 +1 1014.8 1014.3
06 19.05 ЮЗ 11
{15}
н/о н/о +7.0 +6.1 94 +1 +1 1014.4 1013.9 +6.7
07 19.05 ЮЗ 9 н/о н/о +7.4 +3.8 78 +2 +2 1014.9 1014.4
08 19.05 З 5 н/о н/о +7.6 +5.1 84 +4 +4 1015.5 1015.0
09 19.05 З 7 н/о н/о +7.2 +3.1 75 +3 +3 1016.2 1015.7
11 19.05 З 6 н/о н/о +7.0 +2.1 71 +3 +3 1017.9 1017.4
10 19.05 З 6 н/о н/о +7.2 +3.2 76 +3 +3 1017.0 1016.5
12 19.05 З 6
{16}
н/о н/о +7.6 +0.6 61 +4 +4 1018.6 1018.1
13 19.05 З 6 н/о н/о +7.7 +0.4 60 +4 +4 1019.1 1018.6
14 19.05 З 4 н/о н/о +8.4 +1.1 60 +6 +6 1019.5 1019.0
15 19.05 З 3
{8}
н/о н/о +8.4 +1.4 61 +6 +6 1020.0 1019.5
17 19.05 ЮЗ 5
{9}
н/о н/о +7.2 +1.5 67 +4 +4 1019.8 1019.3
16 19.05 ЮЗ 6
{9}
н/о н/о +7.7 +1.7 66 +4 +4 1020.0 1019.5
18 19.05 ЮЗ 5
{11}
н/о н/о +6.8 +1.8 70 +3 +3 1019.6 1019.1 +6.4 +8.5
19 19.05 ЮЗ 4
{6}
н/о н/о +6.4 +2.6 77 +3 +3 1019.4 1018.9
20 19.05 ЮЗ 4
{6}
н/о н/о +6.4 +2.4 76 +3 +3 1019.2 1018.7
21 19.05 Ю 4
{6}
н/о н/о +6.4 +2.7 77 +3 +3 1018.7 1018.2
23 19.05 Ю 6
{8}
н/о н/о +6.6 +3.8 82 +2 +2 1017.5 1017.0
22 19.05 Ю 6
{7}
н/о н/о +6.5 +3.2 79 +2 +2 1018.3 1017.8
00 20.05 Ю 6
{8}
н/о н/о +6.7 +4.4 85 +2 +2 1016.7 1016.2
01 20.05 Ю 6
{8}
н/о н/о +6.9 +5.6 91 +2 +2 1015.9 1015.4
02 20.05 Ю 9
{11}
н/о н/о +7.3 +6.8 97 +2 +2 1015.2 1014.7
03 20.05 Ю 9
{11}
н/о н/о +7.4 +6.9 97 +2 +2 1014.0 1013.5
05 20.05 Ю 12
{15}
н/о н/о +8.7 +5.7 81 +3 +3 1012.8 1012.3
04 20.05 Ю 11
{14}
н/о н/о +8.2 +6.2 87 +3 +3 1013.3 1012.8
06 20.05 Ю 12
{16}
н/о н/о +9.1 +4.8 74 +4 +4 1012.3 1011.8 +6.3 +9.1
07 20.05 Ю 13
{15}
н/о н/о +9.4 +4.8 73 +4 +4 1012.1 1011.6
08 20.05 Ю 13
{17}
н/о н/о +9.9 +4.8 71 +5 +5 1011.7 1011.2
09 20.05 Ю 13
{17}
н/о н/о +10.0 +4.7 70 +5 +5 1011.6 1011.1
11 20.05 ЮЗ 12
{19}
н/о н/о +8.7 +5.9 83 +3 +3 1011.8 1011.3
10 20.05 ЮЗ 13
{18}
н/о н/о +9.8 +5.0 72 +5 +5 1011.9 1011.4
12 20.05 ЮЗ 12
{19}
н/о н/о +8.1 +5.9 86 +2 +2 1011.8 1011.3
13 20.05 ЮЗ 12
{18}
н/о н/о +8.0 +6.0 87 +2 +2 1012.0 1011.5
14 20.05 ЮЗ 11
{15}
н/о н/о +8.2 +5.7 84 +3 +3 1012.3 1011.8
15 20.05 ЮЗ 11
{16}
н/о н/о +7.9 +6.3 90 +2 +2 1012.4 1011.9
17 20.05 ЮЗ 10
{15}
н/о н/о +7.8 +6.9 94 +2 +2 1012.6 1012.1
16 20.05 ЮЗ 11
{15}
н/о н/о +8.0 +6.6 91 +2 +2 1012.5 1012.0
18 20.05 ЮЗ 9
{18}
н/о н/о +7.6 +7.0 96 +2 +2 1012.4 1012.0 +7.6 +10.2
19 20.05 ЮЗ 9
{12}
н/о н/о +7.4 +7.0 97 +2 +2 1012.8 1012.3
20 20.05 ЮЗ 8
{11}
н/о н/о +7.5 +7.0 97 +2 +2 1012.9 1012.4
21 20.05 ЮЗ 8
{11}
н/о н/о +7.5 +7.1 97 +2 +2 1013.2 1012.7
23 20.05 ЮЗ 6
{10}
н/о н/о +7.2 +6.9 98 +3 +3 1013.3 1012.8
22 20.05 ЮЗ 8
{10}
н/о н/о +7.4 +7.0 97 +2 +2 1013.0 1012.5
00 21.05 ЮЗ 5
{12}
н/о н/о +7.2 +6.8 97 +3 +3 1013.5 1013.0
01 21.05 З 3
{8}
н/о н/о +7.2 +6.8 97 +4 +4 1014.1 1013.6
02 21.05 ЮЗ 4
{6}
н/о н/о +6.9 +6.0 94 +3 +3 1014.2 1013.7
03 21.05 ЮЗ 4
{6}
н/о н/о +6.6 +5.9 95 +3 +3 1014.7 1014.2
05 21.05 ЮЗ 4 н/о н/о +6.6 +6.0 96 +3 +3 1015.9 1015.4
04 21.05 ЮЗ 4 н/о н/о +6.6 +5.9 95 +3 +3 1015.1 1014.6
06 21.05 ЮЗ 4
{8}
н/о н/о +6.8 +5.9 94 +3 +3 1016.6 1016.1 +6.5
07 21.05 ЮЗ 5 н/о н/о +6.8 +6.1 95 +3 +3 1017.4 1016.9
08 21.05 ЮЗ 6 н/о н/о +7.2 +6.4 95 +3 +3 1018.4 1017.9
09 21.05 ЮЗ 5 н/о н/о +7.3 +6.3 93 +3 +3 1019.5 1019.0
11 21.05 ЮЗ 5 н/о н/о +8.3 +6.3 87 +5 +5 1021.1 1020.6
10 21.05 ЮЗ 5 н/о н/о +8.3 +5.8 84 +5 +5 1020.4 1019.9
12 21.05 ЮЗ 6
{11}
н/о н/о +8.0 +6.1 88 +4 +4 1021.5 1021.0
13 21.05 ЮЗ 5
{8}
н/о н/о +7.7 +6.0 89 +4 +4 1022.0 1021.5
14 21.05 ЮЗ 5
{7}
н/о н/о +7.7 +6.2 90 +4 +4 1022.7 1022.2
15 21.05 ЮЗ 4
{7}
н/о н/о +7.7 +6.4 91 +4 +4 1023.1 1022.6
17 21.05 ЮЗ 4
{7}
н/о н/о +7.5 +3.1 74 +4 +4 1022.2 1021.7
16 21.05 ЮЗ 6
{11}
н/о н/о +7.8 +4.5 80 +4 +4 1022.7 1022.2
18 21.05 З 2
{11}
н/о н/о +7.2 +2.8 74 +5 +5 1022.1 1021.6 +6.7 +8.6
19 21.05 ЮЗ 4
{6}
н/о н/о +7.2 +2.8 74 +4 +4 1022.1 1021.6
20 21.05 ЮЗ 3
{6}
н/о н/о +7.3 +2.0 69 +5 +5 1022.2 1021.7
21 21.05 ЮЗ 3
{5}
н/о н/о +7.4 +2.2 70 +5 +5 1022.4 1021.9
23 21.05 ЮЗ 2
{3}
н/о н/о +7.0 +3.3 77 +5 +5 1022.0 1021.5
22 21.05 ЮЗ 2
{4}
н/о н/о +7.4 +2.1 69 +6 +6 1022.2 1021.7
00 22.05 Ю 3
{6}
н/о н/о +6.7 +4.5 86 +4 +4 1021.7 1021.2
01 22.05 Ю 4
{6}
н/о н/о +6.0 +4.7 91 +2 +2 1021.7 1021.2
02 22.05 ЮЗ 2
{5}
н/о н/о +6.0 +4.9 93 +3 +3 1021.6 1021.1
03 22.05 ЮЗ 2
{3}
н/о н/о +6.1 +4.9 92 +4 +4 1021.1 1020.6
05 22.05 ЮЗ 3 н/о н/о +6.6 +4.3 85 +4 +4 1021.4 1020.9
04 22.05 З 2 н/о н/о +6.3 +4.5 88 +4 +4 1021.2 1020.7
06 22.05 ЮЗ 3
{6}
н/о н/о +6.5 +4.9 90 +3 +3 1021.7 1021.2 +5.9
07 22.05 ЮЗ 4
{7}
н/о н/о +6.6 +4.9 89 +3 +3 1022.0 1021.5
08 22.05 З 3
{11}
н/о н/о +5.6 +3.0 83 +2 +2 1023.0 1022.5
09 22.05 З 3
{7}
н/о н/о +6.5 +2.9 78 +4 +4 1023.5 1023.0
11 22.05 ЮЗ 5
{7}
н/о н/о +8.0 +3.8 75 +4 +4 1024.3 1023.8
10 22.05 ЮЗ 5
{7}
н/о н/о +7.9 +3.2 72 +4 +4 1023.7 1023.2
12 22.05 ЮЗ 4
{11}
н/о н/о +8.6 +3.9 72 +6 +6 1024.6 1024.1
13 22.05 З 5
{11}
н/о н/о +8.3 +4.0 74 +5 +5 1025.2 1024.7
14 22.05 З 6
{11}
н/о н/о +8.3 +3.2 70 +4 +4 1025.3 1024.8
15 22.05 З 5
{10}
н/о н/о +9.0 +3.6 69 +6 +6 1025.7 1025.2
17 22.05 СЗ 5
{9}
н/о н/о +7.1 +4.0 81 +3 +3 1026.1 1025.6
16 22.05 З 4
{9}
н/о н/о +8.3 +3.0 69 +5 +5 1025.8 1025.3
18 22.05 СЗ 4
{11}
н/о н/о +6.6 +3.2 79 +3 +3 1026.5 1026.0 +5.3 +9.6
19 22.05 СЗ 4
{7}
н/о н/о +6.0 +1.5 73 +2 +2 1026.6 1026.1
20 22.05 СЗ 2
{6}
н/о н/о +5.8 +0.7 70 +4 +4 1027.0 1026.5
21 22.05 З 2
{4}
н/о н/о +4.9 +0.8 75 +2 +2 1027.0 1026.5
23 22.05 З 2
{5}
н/о н/о +5.3 +0.8 73 +3 +3 1027.6 1027.1
22 22.05 З 2
{5}
н/о н/о +5.2 +1.2 75 +3 +3 1027.3 1026.8
00 23.05 З 3
{7}
н/о н/о +5.5 +1.0 73 +2 +2 1027.8 1027.3
01 23.05 З 2
{5}
н/о н/о +5.4 +0.7 72 +3 +3 1028.2 1027.7
02 23.05 СЗ 4
{6}
н/о н/о +5.6 +1.9 77 +2 +2 1028.4 1027.9
03 23.05 СЗ 2
{5}
н/о н/о +5.6 +1.6 75 +3 +3 1028.8 1028.3
05 23.05 СЗ 1 н/о н/о +6.3 +1.4 71 +5 +5 1029.6 1029.1
04 23.05 СЗ 2 н/о н/о +6.2 +1.9 74 +4 +4 1029.3 1028.8
06 23.05 СВ 1
{6}
н/о н/о +6.3 +1.6 72 +5 +5 1029.7 1029.2 +4.9
07 23.05 СВ 2 н/о н/о +6.7 +1.1 67 +5 +5 1030.2 1029.7
08 23.05 В 2 н/о н/о +7.5 +1.6 66 +6 +6 1030.6 1030.1
09 23.05 ЮЗ 3 н/о н/о +7.6 +1.3 64 +5 +5 1030.8 1030.3
11 23.05 ЮЗ 4
{5}
н/о н/о +8.3 +1.8 64 +5 +5 1031.2 1030.7
10 23.05 ЮЗ 4
{5}
н/о н/о +7.7 +1.6 65 +5 +5 1031.0 1030.5
12 23.05 ЮЗ 3
{5}
н/о н/о +8.2 +1.3 62 +6 +6 1031.5 1031.0
13 23.05 ЮЗ 3
{5}
н/о н/о +8.2 +0.9 60 +6 +6 1031.6 1031.1
14 23.05 ЮЗ 3
{5}
н/о н/о +8.5 +1.4 61 +6 +6 1031.8 1031.3
15 23.05 ЮЗ 2
{4}
н/о н/о +8.8 +1.8 61 +7 +7 1032.3 1031.8
17 23.05 Ю 4
{4}
н/о н/о +7.9 +2.0 66 +5 +5 1031.3 1030.8
16 23.05 Ю 3
{6}
н/о н/о +8.0 +1.9 65 +6 +6 1031.5 1031.0
18 23.05 ЮЗ 3
{6}
н/о н/о +7.7 +1.6 65 +5 +5 1031.1 1030.6 +5.9 +9.4
19 23.05 ЮЗ 3
{4}
н/о н/о +6.9 +1.9 70 +4 +4 1030.9 1030.4
20 23.05 ЮЗ 2
{3}
н/о н/о +6.6 +1.7 71 +5 +5 1031.0 1030.5
21 23.05 ЮЗ 3
{3}
н/о н/о +6.6 +2.5 75 +4 +4 1030.8 1030.3
23 23.05 ЮЗ 3
{3}
н/о н/о +6.6 +3.2 79 +4 +4 1030.3 1029.8
22 23.05 ЮЗ 2
{4}
н/о н/о +6.5 +2.4 75 +4 +4 1030.9 1030.4
00 24.05 ЮЗ 3
{4}
н/о н/о +6.7 +3.1 78 +4 +4 1030.3 1029.8
01 24.05 ЮЗ 2
{4}
н/о н/о +6.6 +3.2 79 +4 +4 1030.1 1029.6
02 24.05 ЮЗ 3
{5}
н/о н/о +6.7 +3.1 78 +4 +4 1029.7 1029.2
03 24.05 ЮЗ 3
{4}
н/о н/о +6.8 +3.7 81 +4 +4 1029.8 1029.3
05 24.05 ЮЗ 3 н/о н/о +7.0 +3.8 80 +4 +4 1028.7 1028.2
04 24.05 Ю 3
{5}
н/о н/о +6.9 +4.0 82 +4 +4 1028.6 1028.1
06 24.05 Ю 3
{5}
н/о н/о +7.2 +3.6 78 +4 +4 1028.4 1027.9 +6.5
07 24.05 ЮЗ 2 н/о н/о +7.8 +4.0 77 +6 +6 1028.5 1028.0
08 24.05 ЮЗ 2 н/о н/о +8.2 +4.0 75 +6 +6 1028.2 1027.7
09 24.05 Ю 2 н/о н/о +8.9 +4.7 75 +7 +7 1028.1 1027.6
11 24.05 Ю 3
{4}
н/о н/о +8.6 +4.5 75 +6 +6 1027.7 1027.2
10 24.05 Ю 3 н/о н/о +8.6 +3.8 72 +6 +6 1028.0 1027.5
12 24.05 Ю 3
{5}
н/о н/о +8.7 +4.9 77 +6 +6 1027.8 1027.3
13 24.05 Ю 4
{5}
н/о н/о +8.9 +5.1 77 +6 +6 1027.5 1027.0
14 24.05 Ю 3
{5}
н/о н/о +9.0 +6.0 81 +7 +7 1027.2 1026.7
15 24.05 Ю 4
{5}
н/о н/о +9.1 +5.5 78 +6 +6 1026.9 1026.4
17 24.05 Ю 3
{3}
н/о н/о +8.6 +4.9 78 +6 +6 1026.2 1025.7
16 24.05 Ю 3
{5}
н/о н/о +8.7 +5.0 78 +6 +6 1026.6 1026.1
18 24.05 Ю 2
{5}
н/о н/о +8.6 +5.3 80 +7 +7 1025.8 1025.3 +7.0 +9.5
19 24.05 ЮЗ 2
{2}
н/о н/о +8.4 +5.8 84 +7 +7 1025.7 1025.2
20 24.05 ЮЗ 2
{2}
н/о н/о +8.4 +5.6 83 +7 +7 1025.4 1024.9
21 24.05 З 1
{3}
н/о н/о +7.9 +3.9 76 +7 +7 1025.3 1024.8
23 24.05 Ю 2
{4}
н/о н/о +7.8 +5.2 84 +6 +6 1024.7 1024.2
22 24.05 ЮЗ 2
{2}
н/о н/о +8.3 +4.0 74 +7 +7 1025.0 1024.5
00 25.05 ЮЗ 7
{9}
н/о н/о +7.8 +6.6 92 +3 +3 1024.6 1024.1
01 25.05 ЮЗ 8
{11}
н/о н/о +8.0 +6.8 92 +3 +3 1024.6 1024.1
02 25.05 ЮЗ 6
{10}
н/о н/о +8.0 +6.4 90 +4 +4 1024.6 1024.1
03 25.05 ЮЗ 6
{8}
н/о н/о +7.8 +6.2 90 +4 +4 1024.5 1024.0
05 25.05 ЮЗ 8 н/о н/о +7.7 +6.4 91 +3 +3 1024.6 1024.1
04 25.05 ЮЗ 8
{10}
н/о н/о +7.9 +5.8 87 +3 +3 1024.2 1023.7
06 25.05 ЮЗ 7
{11}
н/о н/о +7.8 +6.2 90 +3 +3 1024.6 1024.1 +7.5
07 25.05 ЮЗ 8 н/о н/о +8.3 +6.4 88 +4 +4 1024.8 1024.3
08 25.05 ЮЗ 9 н/о н/о +8.7 +5.2 79 +4 +4 1025.1 1024.6
09 25.05 ЮЗ 9 н/о н/о +8.5 +5.0 79 +4 +4 1025.0 1024.5
11 25.05 ЮЗ 11
{14}
н/о н/о +8.1 +5.6 84 +3 +3 1024.9 1024.4
10 25.05 ЮЗ 9 н/о н/о +8.3 +5.3 81 +3 +3 1025.0 1024.5
12 25.05 ЮЗ 9
{14}
н/о н/о +7.9 +6.2 89 +3 +3 1025.2 1024.7
13 25.05 ЮЗ 10
{14}
н/о н/о +7.8 +6.9 94 +2 +2 1025.4 1024.9
14 25.05 ЮЗ 8
{12}
н/о н/о +7.8 +7.1 95 +3 +3 1026.1 1025.6

 

Местоположение метеостанции Vaeroy Heliport (Норвегия): широта 67.65 долгота 12.72 высота над уровнем моря 4 м.

В архиве по умолчанию представлена погода в Vaeroy Heliport за последнюю неделю. Архивные данные за месяц целиком и за предыдущие месяцы, начиная с января 2011 года, Вы можете получить, выбрав интересующий диапазон дат из раскрывающегося списка и нажав кнопку "Ввод!".


*Определитесь, кто Вы:
робот инопланетянин человек

Внимание! Время в таблицах - всемирное. Для получения местного времени необходимо прибавить поправку, которая в Vaeroy Heliport равна 1 ч.

Смотрите также архив погоды в соседних городах и на ближайших метеорологических станциях:

Погода в Rost Flyplass (Норвегия) (30 км)
Погода в Helligvaer II (Норвегия) (57 км)
Погода в Leknes (Норвегия) (68 км)
Погода в Bodo VI (Норвегия) (82 км)
Погода в Reipa (Норвегия) (92 км)
Погода в Skrova Fyr (Норвегия) (98 км)
Погода в Myken (Норвегия) (98 км)
Погода в Svolvaer Lufthavn (Норвегия) (105 км)
Погода в Bo i Vesteralen (Норвегия) (128 км)
Погода в Setsa (Норвегия) (130 км)

Пояснения к столбцам:

Ветер - указаны скорость ветра в м/с - средняя за 10 мин, порывы в срок и между сроками (в фигурных скобках) и направление, откуда дует ветер: С - северный, СВ - северо-восточный, В - восточный, ЮВ - юго-восточный, Ю - южный, ЮЗ - юго-западный, З - западный, СЗ - северо-западный.
Видимость - горизонтальная дальность видимости в метрах или километрах. При видимости от 1 до 10 км при отсутствии осадков обычно наблюдается дымка, при ухудшении видимости до 1 км и менее - туман. В сухую погоду видимость может ухудшаться дымом, пылью или мглою.
Явления - указаны атмосферные явления, наблюдавшиеся в срок или в последний час перед сроком; фигурными скобками обозначены явления, наблюдавшиеся между сроками (за 1-3 часа до срока); квадратными скобками обозначены град или гололедные отложения с указанием их диаметра в мм.
Облачность - указаны через наклонную черту общая и нижняя облачность в баллах и высота нижней границы облаков в метрах; квадратными скобками обозначены формы облаков: Ci - перистые, Cs - перисто-слоистые, Cc - перисто-кучевые, Ac - высококучевые, As - высокослоистые, Sc - слоисто-кучевые, Ns - слоисто-дождевые, Cu - кучевые, Cb - кучево-дождевые. Подробнее классификацию облаков см. в Атласе облаков (PDF).
T - Температура воздуха - температура, измеренная на высоте 2 м над землей.
Td - Температура точки росы - температура, при понижении до которой содержащийся в воздухе водяной пар достигнет насыщения.
f - Относительная влажность воздуха - влажноcть воздуха, измеренная на высоте 2 м над землей.
Te - Эффективная температура - температура, которую ощущает одетый по сезону человек в тени. Характеристика душности погоды. При расчете учитывается влияние влажности воздуха и скорости ветра на теплоощущения человека.
Tes - Эффективная температура на солнце - температура, которую ощущает человек, с поправкой на солнечный нагрев. Характеристика знойности погоды. Зависит от высоты солнца над горизонтом, облачности и скорости ветра. Ночью, в пасмурную погоду, а также при ветре 12 м/с и более поправка равна нулю.
P - Атмосферное давление - приведенное к уровню моря атмосферное давление.
Po - Атмосферное давление - измеренное на уровне метеостанции атмосферное давление.
Tmin - Минимальная температура - минимум температуры воздуха на высоте 2 м над землей.
Tmax - Максимальная температура - максимум температуры воздуха на высоте 2 м над землей.
R - Количество осадков - Количество выпавших осадков за период времени, мм. При наведении курсора мыши на число - период времени, за который выпало указанное количество осадков.
R24 - Количество осадков - Количество выпавших осадков за 24 часа, мм.
S - Снежный покров - Высота снежного покрова, см. При наведении курсора мыши на число - состояние снежного покрова и степень покрытия местности в баллах.